Location: Ash Swamp
(41.5170°N, 74.6157°W)
Time: 02:16:55
(UTC+00:00)

Cosmos 1821 Rocket - Pass Details

Date: 14 July 2020
Orbit: 946 x 1004 km, 82.9° (Epoch: 14 August)

Event Time Altitude Azimuth Distance (km) Brightness Sun altitude
Exits shadow 04:10:48 53° 119° (ESE) 1,152 4.1 -25.7°
Maximum altitude 04:11:31 56° 92° (E) 1,114 4.1 -25.7°
Drops below altitude 10° 04:17:27 10° 16° (NNE) 2,675 7.1 -25.9°
Sets 04:19:59 0° 12° (NNE) 3,625 8.0 -26.0°
